sat.trackr.live / text

‹ back to catalog

KUIPER-00044

NORAD 64505 · 2025-134F

PAYLOAD ACTIVE UNKNOWN

§ Identity

Operator
Country
US
Launch date
2025-06-23
Launch site
AFETR
Launch vehicle
Mass (kg)
RCS (m²)

External: N2YO · Heavens-Above · Gunter

§ Orbital elements

Epoch: 2026-05-25T00:38:36.915360Z

Period
97.30 min
Inclination
51.8995°
Eccentricity
0.0000723
Mean motion
14.79933017 rev/d
Perigee alt
629.0 km
Apogee alt
630.0 km
Semi-major
7,007.7 km
B*
6.7919e-5
RAAN
267.9958°
Arg perigee
99.9925°
Mean anomaly
260.1119°
Rev number
5,120

§ Raw data

KUIPER-000441 64505U 25134F   26145.02681615  .00000297  00000+0  67919-4 0  99952 64505  51.8995 267.9958 0000723  99.9925 260.1119 14.79933017 51202

JSON: /api/v1/satellites/64505 · /tle

For live sub-satellite position, see the globe view (requires WebGL).

§ Visibility from observer

Set your observer location to see the next 7 days of passes ≥ 10°. The values pass through the URL so the page stays shareable.

No JS? Fill the form by hand. The geolocation button needs JavaScript.